DW5683 Weather Reports


time (UTC)temp
F
wind
direction
speed
knots
gust
knots
rain 1hr
in
rain 24hr
in
rain mn
in
humidity
%
barometer
mb
20260905100053 51 0 0.0 0.0 0.00 0.01 0.00 88 1014.0
20260905094549 51 0 0.0 0.0 0.00 0.02 0.00 88 1014.1
20260905093043 51 0 0.0 0.0 0.00 0.02 0.00 88 1014.0
20260905091612 51 0 0.0 0.0 0.00 0.02 0.00 87 1013.9
20260905090051 52 0 0.0 0.0 0.00 0.02 0.00 86 1013.8
20260905084554 52 0 0.0 0.0 0.00 0.05 0.00 86 1014.1
20260905083045 52 0 0.0 0.0 0.00 0.05 0.00 86 1013.9
20260905081542 53 0 0.0 0.0 0.00 0.05 0.00 85 1013.9
20260905080048 53 0 0.0 0.0 0.00 0.05 0.00 85 1013.6
20260905074547 53 0 0.0 0.0 0.00 0.07 0.00 84 1013.6
20260905073050 54 0 0.0 0.0 0.00 0.07 0.00 84 1013.5
20260905071545 54 0 0.0 0.0 0.00 0.07 0.00 82 1013.4
20260905070048 55 0 0.0 0.0 0.00 0.07 0.00 82 1013.4
20260905064546 55 0 0.0 0.0 0.00 0.07 0.07 80 1013.2
20260905063041 56 0 0.0 0.0 0.00 0.07 0.07 80 1013.2
20260905061606 57 0 0.0 0.0 0.00 0.07 0.07 80 1013.1
20260905060054 57 0 0.0 0.0 0.00 0.07 0.07 78 1013.2
20260905054543 57 0 0.0 0.0 0.00 0.11 0.07 77 1013.4
20260905053043 58 0 0.0 0.0 0.00 0.11 0.07 75 1013.4
20260905051542 58 0 0.0 0.0 0.00 0.11 0.07 73 1013.4
20260905050048 59 0 0.0 0.0 0.00 0.11 0.07 72 1013.5
20260905044543 60 0 0.0 0.0 0.00 0.12 0.07 70 1013.5
20260905043043 61 0 0.0 0.0 0.00 0.12 0.07 67 1013.3
20260905041559 61 0 0.0 0.0 0.00 0.12 0.07 65 1013.2
20260905040049 62 0 0.0 0.0 0.00 0.12 0.07 69 1012.9
20260905034553 64 0 0.0 0.0 0.00 0.12 0.07 67 1012.8
20260905033041 65 0 0.0 0.0 0.00 0.12 0.07 64 1012.7
20260905031547 67 0 0.0 0.0 0.00 0.12 0.07 61 1012.6
20260905030045 69 0 0.0 0.0 0.00 0.12 0.07 56 1012.4
20260905024541 72 0 0.0 1.7 0.00 0.12 0.07 47 1012.3
20260905023049 74 0 0.0 1.7 0.00 0.12 0.07 45 1012.1
20260905021552 75 220 0.9 2.6 0.00 0.12 0.07 43 1012.1
20260905020043 76 220 0.0 2.6 0.00 0.12 0.07 41 1012.1
20260905014542 76 220 0.9 3.5 0.00 0.12 0.07 41 1012.3
20260905013050 76 220 0.0 2.6 0.00 0.12 0.07 40 1012.0
20260905011547 77 0 0.9 4.3 0.00 0.12 0.07 39 1012.0
20260905010043 77 0 0.9 2.6 0.00 0.12 0.07 40 1012.0
20260905004548 77 0 0.0 7.0 0.00 0.12 0.07 39 1011.9
20260905003044 77 0 0.0 3.5 0.00 0.12 0.07 39 1012.0
20260905001553 79 0 0.0 4.3 0.00 0.12 0.07 39 1012.0
20260905000042 79 0 0.9 4.3 0.00 0.12 0.07 39 1012.1
20260904234548 79 249 0.9 6.1 0.00 0.12 0.07 39 1012.3
20260904233101 78 0 0.9 3.5 0.00 0.12 0.07 39 1012.3
20260904231553 79 189 1.7 4.3 0.00 0.12 0.07 40 1012.5
20260904230045 79 209 0.0 4.3 0.00 0.12 0.07 39 1012.5
20260904224556 78 211 1.7 8.7 0.00 0.12 0.07 43 1012.7
20260904223101 79 107 0.9 7.0 0.00 0.12 0.07 40 1012.9
20260904221545 79 0 1.7 5.2 0.00 0.12 0.07 43 1012.9
20260904220055 79 249 0.9 7.0 0.00 0.12 0.07 43 1012.9
20260904214547 79 0 0.0 6.1 0.00 0.12 0.07 46 1012.9
20260904213048 78 239 2.6 7.8 0.00 0.12 0.07 48 1012.9
20260904211546 76 170 0.9 7.8 0.00 0.12 0.07 47 1012.9
20260904210059 77 0 0.9 5.2 0.00 0.12 0.07 49 1012.9
20260904204549 74 182 0.9 7.0 0.00 0.12 0.07 52 1012.9
20260904203100 74 128 1.7 4.3 0.00 0.12 0.07 54 1013.0
20260904201549 74 119 0.9 5.2 0.00 0.12 0.07 53 1013.2
20260904200049 72 76 0.0 3.5 0.00 0.12 0.07 55 1013.3
20260904194543 72 103 0.9 5.2 0.00 0.12 0.07 56 1013.5
20260904193047 72 138 0.9 8.7 0.00 0.12 0.07 61 1013.6
20260904191553 71 112 0.9 6.1 0.00 0.12 0.07 59 1013.8
20260904190047 72 95 0.9 5.2 0.00 0.12 0.07 58 1013.7
20260904184541 71 146 0.9 6.1 0.00 0.12 0.07 62 1013.8
20260904183050 70 0 0.9 3.5 0.00 0.12 0.07 65 1013.8
20260904181544 68 98 0.9 5.2 0.00 0.12 0.07 68 1013.8
20260904180042 67 0 1.7 6.1 0.00 0.12 0.07 71 1013.8
20260904174550 66 117 0.0 5.2 0.00 0.12 0.07 74 1013.8
20260904173053 65 109 0.9 5.2 0.00 0.12 0.07 76 1013.7
20260904171542 66 0 0.9 7.0 0.00 0.12 0.07 76 1013.7
20260904170045 65 0 0.9 6.1 0.00 0.12 0.07 77 1013.5
20260904164549 64 109 1.7 6.1 0.00 0.12 0.07 80 1013.4
20260904163049 63 136 1.7 7.0 0.00 0.12 0.07 85 1013.3
20260904161543 62 124 1.7 4.3 0.00 0.12 0.07 91 1013.3
20260904160052 60 108 1.7 5.2 0.00 0.12 0.07 92 1013.2
20260904154548 59 134 0.9 2.6 0.00 0.12 0.07 92 1013.1
20260904153044 59 136 0.9 2.6 0.00 0.12 0.07 92 1013.1
20260904151544 59 140 0.0 1.7 0.00 0.12 0.07 92 1013.0
20260904150051 59 0 0.0 2.6 0.00 0.12 0.07 93 1012.9
20260904144605 59 0 0.0 2.6 0.00 0.12 0.07 92 1012.8
20260904143055 59 139 0.0 3.5 0.00 0.12 0.07 92 1012.6
20260904141542 59 0 0.9 3.5 0.00 0.12 0.07 92 1012.3
20260904140049 59 0 0.0 0.0 0.00 0.12 0.07 92 1012.1
20260904134549 59 0 0.0 0.0 0.00 0.12 0.07 92 1011.9
20260904133046 59 0 0.0 1.7 0.00 0.12 0.07 92 1011.7
20260904131540 59 115 0.0 3.5 0.00 0.12 0.07 92 1011.6
20260904130048 60 109 0.0 3.5 0.00 0.12 0.07 92 1011.6
20260904124543 60 0 0.0 2.6 0.00 0.12 0.07 92 1011.5
20260904123041 60 0 0.0 0.9 0.00 0.11 0.06 92 1011.5
20260904121541 60 0 0.0 1.7 0.00 0.11 0.06 92 1011.4
20260904120048 60 0 0.0 1.7 0.00 0.11 0.06 92 1011.3
20260904114543 60 0 0.0 0.0 0.00 0.11 0.06 92 1011.2
20260904113041 60 0 0.0 0.0 0.00 0.11 0.06 92 1011.2
20260904111550 60 0 0.0 1.7 0.00 0.11 0.06 92 1011.2
20260904110043 61 0 0.0 0.9 0.00 0.11 0.06 92 1011.1
20260904104544 61 0 0.0 0.0 0.00 0.11 0.06 92 1011.1
20260904103040 61 0 0.0 0.0 0.00 0.11 0.05 92 1011.0
20260904101541 61 0 0.0 2.6 0.00 0.11 0.05 92 1010.9